EW0499 Weather Reports


time (UTC)temp
C
wind
direction
speed
KPH
gust
KPH
rain 1hr
cm
rain 24hr
cm
rain mn
cm
humidity
%
barometer
mb
20260504173604 10 324 25.7 40.2 0.00 0.18 0.00 54 1012.9
20260504173404 10 332 24.1 45.1 0.00 0.18 0.00 54 1012.8
20260504173204 10 328 20.9 46.7 0.00 0.18 0.00 54 1012.9
20260504173004 10 312 24.1 46.7 0.00 0.18 0.00 53 1013.1
20260504172804 10 320 22.5 46.7 0.00 0.18 0.00 53 1012.9
20260504172604 10 309 27.4 46.7 0.00 0.18 0.00 53 1012.9
20260504172404 10 318 24.1 46.7 0.00 0.18 0.00 53 1012.8
20260504172204 10 329 22.5 45.1 0.00 0.18 0.00 53 1012.7
20260504172005 11 314 24.1 45.1 0.00 0.18 0.00 53 1012.8
20260504171804 11 309 24.1 40.2 0.00 0.18 0.00 52 1012.8
20260504171604 11 324 24.1 40.2 0.00 0.18 0.00 53 1012.7
20260504171405 11 333 20.9 33.8 0.00 0.18 0.00 52 1012.6
20260504171204 11 336 19.3 33.8 0.00 0.18 0.00 53 1012.5
20260504171004 11 324 20.9 41.8 0.00 0.18 0.00 52 1012.4
20260504170804 11 312 22.5 41.8 0.00 0.18 0.00 53 1012.5
20260504170604 11 325 16.1 41.8 0.00 0.18 0.00 53 1012.5
20260504170404 11 332 19.3 41.8 0.00 0.18 0.00 53 1012.6
20260504170204 11 346 14.5 41.8 0.00 0.18 0.00 54 1012.6
20260504160425 10 319 24.1 38.6 0.00 0.18 0.00 54 1012.2
20260504160225 10 336 22.5 33.8 0.00 0.18 0.00 54 1012.1
20260504151005 10 325 20.9 40.2 0.00 0.18 0.00 54 1012.3
20260504150804 10 328 22.5 40.2 0.00 0.18 0.00 54 1012.2
20260504150603 10 324 22.5 33.8 0.00 0.18 0.00 53 1012.3
20260504150404 10 331 19.3 33.8 0.00 0.18 0.00 54 1012.3
20260504150204 10 334 17.7 33.8 0.00 0.18 0.00 54 1012.3
20260504141204 9 339 11.3 27.4 0.00 0.18 0.00 61 1012.4
20260504141004 9 332 12.9 27.4 0.00 0.18 0.00 62 1012.4
20260504140804 9 340 12.9 27.4 0.00 0.18 0.00 62 1012.3
20260504140603 9 329 16.1 32.2 0.00 0.18 0.00 62 1012.3
20260504140404 9 329 16.1 32.2 0.00 0.18 0.00 63 1012.4
20260504140204 9 335 16.1 32.2 0.00 0.18 0.00 63 1012.2
20260504130804 8 311 3.2 6.4 0.00 0.18 0.00 64 1011.6
20260504130604 8 314 1.6 11.3 0.00 0.18 0.00 65 1011.5
20260504130404 8 302 3.2 11.3 0.00 0.18 0.00 64 1011.5
20260504130205 8 292 4.8 11.3 0.00 0.18 0.00 64 1011.4
20260504120225 8 319 4.8 8.0 0.00 0.18 0.00 60 1010.6
20260504110604 11 323 14.5 30.6 0.00 0.18 0.00 55 1008.8
20260504110404 11 328 12.9 30.6 0.00 0.18 0.00 54 1008.7
20260504110204 11 341 22.5 30.6 0.00 0.18 0.00 54 1008.7
20260504100603 11 309 1.6 6.4 0.00 0.18 0.00 50 1007.3
20260504100404 11 326 3.2 8.0 0.00 0.18 0.00 50 1007.3
20260504100204 12 10 4.8 11.3 0.00 0.18 0.00 49 1007.3
20260504082004 14 242 19.3 33.8 0.00 0.18 0.00 42 1006.8
20260504081804 14 242 19.3 30.6 0.00 0.18 0.00 42 1006.9
20260504081604 14 243 20.9 30.6 0.00 0.18 0.00 43 1006.9
20260504081403 14 245 20.9 30.6 0.00 0.18 0.00 43 1006.9
20260504081204 14 241 17.7 30.6 0.00 0.18 0.00 43 1006.9
20260504081003 14 253 19.3 30.6 0.00 0.18 0.00 43 1006.9
20260504080804 14 254 17.7 32.2 0.00 0.18 0.00 43 1006.9
20260504080604 14 257 16.1 33.8 0.00 0.18 0.00 43 1006.9
20260504080404 14 257 16.1 33.8 0.00 0.18 0.00 43 1006.9
20260504080204 14 253 16.1 33.8 0.00 0.18 0.00 43 1006.9
20260504070404 15 240 19.3 35.4 0.00 0.18 0.00 45 1007.3
20260504070204 15 238 25.7 40.2 0.00 0.18 0.00 44 1007.2
20260504060203 14 248 12.9 20.9 0.00 0.18 0.00 49 1007.7
20260504050604 14 248 16.1 27.4 0.00 0.18 0.18 49 1008.4
20260504050404 14 247 17.7 25.7 0.00 0.18 0.18 49 1008.5
20260504050204 14 247 17.7 30.6 0.00 0.18 0.18 50 1008.5
20260504050007 14 254 16.1 30.6 0.00 0.18 0.18 50 1008.5
20260504045804 14 249 16.1 30.6 0.00 0.18 0.18 50 1008.5
20260504045604 14 252 17.7 30.6 0.00 0.18 0.18 49 1008.5
20260504045425 14 248 19.3 30.6 0.00 0.18 0.18 50 1008.5
20260504045225 14 245 17.7 30.6 0.00 0.18 0.18 50 1008.5
20260504045025 14 241 17.7 32.2 0.00 0.18 0.18 50 1008.5
20260504044804 14 239 20.9 32.2 0.00 0.18 0.18 50 1008.4
20260504044604 14 247 17.7 32.2 0.00 0.18 0.18 50 1008.5
20260504044404 14 257 19.3 32.2 0.00 0.18 0.18 50 1008.5
20260504044204 14 242 20.9 32.2 0.00 0.18 0.18 50 1008.5
20260504044004 14 244 17.7 27.4 0.00 0.18 0.18 50 1008.5
20260504043804 14 245 17.7 27.4 0.00 0.18 0.18 50 1008.5
20260504043603 14 250 16.1 30.6 0.00 0.18 0.18 50 1008.6
20260504043403 14 249 12.9 30.6 0.00 0.18 0.18 50 1008.6
20260504043204 14 255 16.1 30.6 0.00 0.18 0.18 50 1008.5
20260504043004 14 262 17.7 30.6 0.00 0.18 0.18 50 1008.6
20260504042804 14 249 17.7 30.6 0.00 0.18 0.18 50 1008.5
20260504042604 14 250 17.7 29.0 0.00 0.18 0.18 50 1008.5
20260504042425 15 259 16.1 29.0 0.00 0.18 0.18 50 1008.5
20260504042224 15 255 16.1 29.0 0.00 0.18 0.18 50 1008.5
20260504042024 15 249 19.3 29.0 0.00 0.18 0.18 50 1008.4
20260504041804 15 241 19.3 29.0 0.00 0.18 0.18 49 1008.5
20260504041604 15 260 16.1 29.0 0.00 0.18 0.18 49 1008.5
20260504041404 15 254 16.1 30.6 0.00 0.18 0.18 49 1008.5
20260504041204 15 253 16.1 32.2 0.00 0.18 0.18 49 1008.5
20260504041003 15 258 16.1 32.2 0.00 0.18 0.18 49 1008.4
20260504040804 15 258 17.7 33.8 0.00 0.18 0.18 49 1008.4
20260504040604 15 250 17.7 33.8 0.00 0.18 0.18 48 1008.5
20260504040404 15 245 19.3 33.8 0.00 0.18 0.18 48 1008.4
20260504040204 15 250 22.5 33.8 0.00 0.18 0.18 48 1008.4
20260504040004 15 242 22.5 33.8 0.00 0.18 0.18 48 1008.5
20260504035803 15 243 20.9 33.8 0.00 0.18 0.18 49 1008.4
20260504035604 15 248 19.3 33.8 0.00 0.18 0.18 49 1008.4
20260504035425 15 240 19.3 33.8 0.00 0.18 0.18 49 1008.5
20260504035225 15 244 17.7 33.8 0.00 0.18 0.18 49 1008.5
20260504035025 15 246 17.7 25.7 0.00 0.18 0.18 49 1008.5
20260504034825 15 237 19.3 25.7 0.00 0.18 0.18 49 1008.5
20260504034625 15 241 16.1 24.1 0.00 0.18 0.18 50 1008.5
20260504034425 14 249 12.9 24.1 0.00 0.18 0.18 51 1008.5
20260504034203 14 248 14.5 22.5 0.00 0.18 0.18 52 1008.6
20260504034004 14 241 12.9 22.5 0.00 0.18 0.18 53 1008.6
20260504033804 14 262 11.3 20.9 0.00 0.18 0.18 53 1008.6
20260504033604 14 260 11.3 24.1 0.00 0.18 0.18 53 1008.6
20260504033405 14 262 8.0 24.1 0.00 0.18 0.18 54 1008.5
20260504033204 14 259 12.9 24.1 0.00 0.18 0.18 54 1008.6
20260504033025 14 253 12.9 24.1 0.00 0.18 0.18 53 1008.6
20260504032825 14 257 12.9 24.1 0.00 0.18 0.18 53 1008.7
20260504032625 14 261 12.9 24.1 0.00 0.18 0.18 54 1008.6
20260504032403 14 249 14.5 24.1 0.00 0.18 0.18 54 1008.6
20260504032203 14 241 12.9 24.1 0.00 0.18 0.18 55 1008.6
20260504032004 13 249 12.9 24.1 0.00 0.18 0.18 55 1008.5
20260504031804 13 245 16.1 24.1 0.00 0.18 0.18 57 1008.6
20260504031604 13 246 16.1 22.5 0.00 0.18 0.18 57 1008.6
20260504031404 13 244 14.5 20.9 0.00 0.18 0.18 58 1008.6
20260504031224 13 241 12.9 20.9 0.00 0.18 0.18 60 1008.6
20260504031025 13 246 12.9 20.9 0.00 0.18 0.18 61 1008.6
20260504030825 12 252 12.9 17.7 0.00 0.18 0.18 61 1008.6
20260504030603 12 252 11.3 17.7 0.00 0.18 0.18 64 1008.6
20260504030404 11 246 9.7 17.7 0.00 0.18 0.18 65 1008.5
20260504030203 11 241 8.0 16.1 0.00 0.18 0.18 67 1008.5
20260504030004 11 251 3.2 6.4 0.00 0.18 0.18 71 1008.5
20260504025803 11 220 3.2 4.8 0.00 0.18 0.18 70 1008.6
20260504025607 11 215 3.2 4.8 0.00 0.18 0.18 70 1008.6
20260504025403 11 216 3.2 4.8 0.00 0.18 0.18 70 1008.5
20260504025203 11 216 1.6 4.8 0.00 0.18 0.18 69 1008.5
20260504025004 11 216 0.0 3.2 0.00 0.18 0.18 68 1008.5
20260504024804 11 216 0.0 3.2 0.00 0.18 0.18 67 1008.5
20260504024604 11 0 0.0 3.2 0.00 0.18 0.18 67 1008.5
20260504024404 11 216 0.0 4.8 0.00 0.18 0.18 67 1008.5
20260504024204 12 216 1.6 4.8 0.00 0.18 0.18 66 1008.4
20260504024004 12 216 1.6 4.8 0.00 0.18 0.18 66 1008.4
20260504023804 12 216 1.6 6.4 0.00 0.18 0.18 65 1008.4
20260504023604 12 216 3.2 6.4 0.00 0.18 0.18 64 1008.4
20260504023403 12 213 3.2 6.4 0.00 0.18 0.18 64 1008.4
20260504023204 12 207 3.2 6.4 0.00 0.18 0.18 64 1008.4
20260504023004 12 248 4.8 6.4 0.00 0.18 0.18 64 1008.4
20260504022804 12 281 1.6 4.8 0.00 0.18 0.18 66 1008.4
20260504022603 12 284 0.0 6.4 0.00 0.18 0.18 66 1008.4
20260504022404 12 284 0.0 8.0 0.00 0.18 0.18 66 1008.4
20260504022204 12 284 1.6 8.0 0.00 0.18 0.18 66 1008.4
20260504022003 12 282 3.2 8.0 0.00 0.18 0.18 66 1008.3
20260504021807 12 289 3.2 8.0 0.00 0.18 0.18 66 1008.3
20260504021603 12 331 4.8 8.0 0.00 0.18 0.18 67 1008.3
20260504021403 12 319 3.2 6.4 0.00 0.18 0.18 67 1008.2
20260504021204 12 237 3.2 6.4 0.00 0.18 0.18 67 1008.3
20260504021004 12 239 1.6 4.8 0.00 0.18 0.18 69 1008.2
20260504020804 12 252 1.6 3.2 0.00 0.18 0.18 69 1008.3
20260504020624 12 252 1.6 3.2 0.00 0.18 0.18 69 1008.3
20260504020425 12 252 0.0 3.2 0.00 0.18 0.18 69 1008.3
20260504020225 13 251 0.0 4.8 0.00 0.18 0.18 69 1008.4
20260504020025 13 252 0.0 6.4 0.00 0.18 0.18 68 1008.4
20260504015825 13 250 1.6 6.4 0.00 0.18 0.18 68 1008.4
20260504015624 13 228 3.2 6.4 0.00 0.18 0.18 68 1008.4
20260504015408 13 226 3.2 6.4 0.00 0.18 0.18 67 1008.4
20260504015205 13 220 4.8 6.4 0.00 0.18 0.18 67 1008.4
20260504015004 13 220 3.2 6.4 0.00 0.18 0.18 67 1008.5
20260504014803 13 234 3.2 6.4 0.00 0.18 0.18 66 1008.5
20260504014604 13 242 3.2 6.4 0.00 0.18 0.18 66 1008.5
20260504014404 14 257 3.2 6.4 0.00 0.18 0.18 66 1008.6
20260504014203 14 260 3.2 6.4 0.00 0.18 0.18 65 1008.6
20260504014004 14 263 3.2 6.4 0.00 0.18 0.18 65 1008.7
20260504013803 15 249 4.8 8.0 0.00 0.18 0.18 64 1008.7
20260504013604 15 203 4.8 8.0 0.00 0.18 0.18 63 1008.7
20260504013403 15 199 3.2 8.0 0.00 0.18 0.18 62 1008.8
20260504013204 15 176 3.2 8.0 0.00 0.18 0.18 61 1008.8
20260504013004 15 135 4.8 8.0 0.00 0.18 0.18 61 1008.8
20260504012804 15 153 4.8 8.0 0.00 0.18 0.18 60 1008.8
20260504012603 15 167 3.2 6.4 0.00 0.18 0.18 60 1008.8
20260504012403 15 137 4.8 8.0 0.00 0.18 0.18 60 1008.8
20260504012204 16 140 4.8 8.0 0.00 0.18 0.18 60 1008.8
20260504012004 16 141 4.8 8.0 0.00 0.18 0.18 59 1008.8
20260504011803 16 141 3.2 8.0 0.00 0.18 0.18 60 1008.9
20260504011603 16 141 4.8 8.0 0.00 0.18 0.18 59 1008.9
20260504011404 16 154 3.2 6.4 0.00 0.18 0.18 59 1008.9
20260504011204 16 140 4.8 8.0 0.00 0.18 0.18 60 1009.0
20260504011007 16 149 3.2 11.3 0.00 0.18 0.18 60 1009.0
20260504010804 16 194 1.6 11.3 0.00 0.18 0.18 60 1009.0
20260504010603 16 193 3.2 11.3 0.00 0.18 0.18 60 1009.0
20260504010404 16 76 4.8 11.3 0.00 0.18 0.18 59 1009.1
20260504010204 16 94 4.8 11.3 0.00 0.18 0.18 59 1009.1
20260504010004 16 143 4.8 9.7 0.00 0.18 0.18 59 1009.2
20260504005804 16 148 3.2 6.4 0.00 0.18 0.18 59 1009.2
20260504005604 16 96 1.6 6.4 0.00 0.18 0.18 58 1009.2
20260504005404 16 116 3.2 8.0 0.00 0.18 0.18 58 1009.3
20260504005203 16 140 3.2 14.5 0.00 0.18 0.18 57 1009.2
20260504005004 17 192 1.6 14.5 0.00 0.18 0.18 57 1009.3
20260504004804 17 197 3.2 14.5 0.00 0.18 0.18 56 1009.3
20260504004603 17 200 4.8 14.5 0.00 0.18 0.18 56 1009.3
20260504004404 17 195 6.4 14.5 0.00 0.18 0.18 56 1009.3
20260504004204 17 195 6.4 14.5 0.00 0.18 0.18 55 1009.4
20260504004004 17 190 6.4 14.5 0.00 0.18 0.18 54 1009.4
20260504003804 17 193 6.4 14.5 0.00 0.18 0.18 54 1009.4
20260504003604 18 186 6.4 14.5 0.00 0.18 0.18 54 1009.4
20260504003404 18 195 4.8 14.5 0.00 0.18 0.18 54 1009.5
20260504003204 18 186 6.4 14.5 0.00 0.18 0.18 54 1009.5
20260504003004 18 184 4.8 14.5 0.00 0.18 0.18 54 1009.5
20260504002804 18 193 4.8 14.5 0.00 0.18 0.18 54 1009.6
20260504002604 18 180 6.4 14.5 0.00 0.18 0.18 54 1009.6
20260504002404 18 194 3.2 11.3 0.00 0.18 0.18 55 1009.6
20260504002204 18 196 6.4 14.5 0.00 0.18 0.18 55 1009.6
20260504002003 18 192 8.0 14.5 0.00 0.18 0.18 54 1009.7
20260504001804 18 187 4.8 14.5 0.00 0.18 0.18 55 1009.8
20260504001604 18 191 6.4 14.5 0.00 0.18 0.18 55 1009.8
20260504001404 17 202 6.4 14.5 0.00 0.18 0.18 55 1009.8
20260504001203 17 194 6.4 11.3 0.00 0.18 0.18 55 1009.9
20260504001004 17 215 4.8 11.3 0.00 0.18 0.18 56 1009.9
20260504000804 17 193 6.4 14.5 0.00 0.18 0.18 55 1009.9
20260504000604 17 204 6.4 14.5 0.00 0.18 0.18 55 1010.0
20260504000404 17 212 6.4 14.5 0.00 0.18 0.18 56 1009.9
20260504000204 17 194 6.4 16.1 0.00 0.18 0.18 56 1010.1
20260504000007 17 184 8.0 16.1 0.00 0.18 0.18 55 1010.1
20260503235803 17 215 8.0 16.1 0.00 0.18 0.18 56 1010.1
20260503235604 17 207 4.8 16.1 0.00 0.18 0.18 56 1010.2
20260503235404 17 215 8.0 17.7 0.00 0.18 0.18 57 1010.2
20260503235204 17 209 6.4 17.7 0.00 0.18 0.18 56 1010.2
20260503235004 17 198 6.4 17.7 0.00 0.18 0.18 57 1010.2
20260503234825 17 209 8.0 17.7 0.00 0.18 0.18 58 1010.2
20260503234625 17 215 11.3 17.7 0.00 0.18 0.18 56 1010.3
20260503234425 17 198 8.0 20.9 0.00 0.18 0.18 58 1010.3
20260503234204 17 210 8.0 24.1 0.00 0.18 0.18 59 1010.3
20260503234004 17 212 9.7 24.1 0.00 0.18 0.18 59 1010.4
20260503233804 17 206 9.7 24.1 0.00 0.18 0.18 59 1010.4
20260503233603 17 209 9.7 24.1 0.00 0.18 0.18 59 1010.4
20260503233404 17 207 9.7 24.1 0.00 0.18 0.18 59 1010.4
20260503233203 17 226 9.7 24.1 0.00 0.18 0.18 56 1010.4
20260503233003 17 240 9.7 25.7 0.00 0.18 0.18 56 1010.5
20260503232803 17 234 9.7 25.7 0.00 0.18 0.18 57 1010.6
20260503232604 17 234 9.7 25.7 0.00 0.18 0.18 57 1010.5
20260503232404 17 213 9.7 25.7 0.00 0.18 0.18 58 1010.6
20260503232204 17 231 12.9 25.7 0.00 0.18 0.18 58 1010.6
20260503232004 17 206 11.3 24.1 0.00 0.18 0.18 58 1010.7
20260503231804 17 240 9.7 19.3 0.00 0.18 0.18 58 1010.8
20260503231603 17 235 12.9 19.3 0.00 0.18 0.18 58 1010.8
20260503231404 16 225 9.7 19.3 0.00 0.18 0.18 59 1010.8
20260503231204 16 218 9.7 19.3 0.00 0.18 0.18 60 1010.8
20260503231004 16 193 6.4 20.9 0.00 0.18 0.18 61 1010.8
20260503230804 16 223 4.8 20.9 0.00 0.18 0.18 62 1010.8
20260503230604 16 219 9.7 27.4 0.00 0.18 0.18 60 1010.9
20260503230404 16 209 9.7 27.4 0.00 0.18 0.18 61 1011.1
20260503230203 16 216 8.0 27.4 0.00 0.18 0.18 63 1011.1
20260503230004 16 202 9.7 27.4 0.00 0.18 0.18 63 1011.1
20260503225804 15 220 9.7 27.4 0.00 0.18 0.18 63 1011.1
20260503225604 15 211 12.9 27.4 0.00 0.18 0.18 64 1011.2
20260503225404 15 219 9.7 27.4 0.00 0.18 0.18 64 1011.2
20260503225204 15 218 11.3 29.0 0.00 0.18 0.18 64 1011.4
20260503225004 15 215 11.3 29.0 0.00 0.18 0.18 65 1011.3
20260503224825 15 236 14.5 29.0 0.00 0.18 0.18 63 1011.5
20260503224625 15 224 12.9 29.0 0.00 0.18 0.18 66 1011.6
20260503224425 15 234 12.9 29.0 0.00 0.18 0.18 66 1011.7
20260503224204 15 235 12.9 25.7 0.00 0.18 0.18 67 1011.7
20260503224004 15 232 16.1 27.4 0.00 0.18 0.18 67 1011.8
20260503223803 15 233 12.9 27.4 0.00 0.18 0.18 69 1011.9
20260503223604 14 229 12.9 27.4 0.00 0.18 0.18 69 1011.9
20260503223404 14 221 8.0 27.4 0.00 0.18 0.18 71 1011.9
20260503223204 14 207 14.5 27.4 0.00 0.18 0.18 70 1012.0
20260503223004 14 211 12.9 25.7 0.00 0.18 0.18 72 1012.1
20260503222804 13 202 11.3 24.1 0.00 0.18 0.18 71 1012.1
20260503222603 13 239 9.7 25.7 0.00 0.18 0.18 71 1012.2
20260503222404 13 241 14.5 40.2 0.00 0.18 0.18 71 1012.2
20260503222204 13 227 9.7 40.2 0.00 0.18 0.18 72 1012.4
20260503222004 13 231 14.5 40.2 0.00 0.18 0.18 71 1012.4
20260503221803 13 228 16.1 40.2 0.00 0.18 0.18 70 1012.4
20260503221604 13 233 17.7 40.2 0.00 0.18 0.18 70 1012.4
20260503221404 13 222 19.3 33.8 0.00 0.18 0.18 69 1012.4
20260503221204 13 223 17.7 32.2 0.00 0.18 0.18 69 1012.5
20260503221004 13 224 17.7 29.0 0.00 0.18 0.18 69 1012.7
20260503220804 13 237 14.5 22.5 0.00 0.18 0.18 70 1012.8
20260503220604 13 239 11.3 17.7 0.00 0.18 0.18 70 1012.8
20260503220404 13 242 9.7 17.7 0.00 0.18 0.18 71 1012.8
20260503220204 13 233 8.0 17.7 0.00 0.18 0.18 71 1012.9
20260503220003 13 236 9.7 17.7 0.00 0.18 0.18 72 1013.0
20260503215804 13 238 8.0 17.7 0.00 0.18 0.18 71 1013.0
20260503215603 13 245 9.7 17.7 0.00 0.18 0.18 71 1013.0
20260503215424 13 247 9.7 17.7 0.00 0.18 0.18 72 1013.0
20260503215225 13 242 8.0 14.5 0.00 0.18 0.18 72 1013.1
20260503215028 13 248 8.0 11.3 0.00 0.18 0.18 73 1013.0
20260503214804 13 247 6.4 11.3 0.00 0.18 0.18 74 1013.1
20260503214604 13 244 3.2 14.5 0.03 0.18 0.18 75 1013.0
20260503214404 13 245 3.2 14.5 0.03 0.18 0.18 76 1013.1
20260503214204 13 241 4.8 14.5 0.03 0.18 0.18 76 1013.1
20260503214003 13 242 6.4 14.5 0.05 0.18 0.18 77 1013.1
20260503213804 13 242 4.8 14.5 0.08 0.18 0.18 78 1013.1
20260503213625 13 212 4.8 14.5 0.08 0.18 0.18 78 1013.1
20260503213424 13 215 8.0 14.5 0.10 0.18 0.18 78 1013.2
20260503213225 13 209 6.4 16.1 0.13 0.18 0.18 79 1013.2
20260503213004 12 221 6.4 16.1 0.15 0.18 0.18 81 1013.3
20260503212804 12 214 6.4 16.1 0.18 0.18 0.18 82 1013.3
20260503212603 12 208 6.4 16.1 0.18 0.18 0.18 83 1013.3
20260503212403 12 202 8.0 16.1 0.18 0.18 0.18 84 1013.3
20260503212204 12 214 9.7 16.1 0.18 0.18 0.18 85 1013.4
20260503212007 12 212 8.0 9.7 0.18 0.18 0.18 85 1013.4
20260503211803 12 217 6.4 9.7 0.18 0.18 0.18 86 1013.4
20260503211603 12 215 6.4 11.3 0.18 0.18 0.18 86 1013.4
20260503211404 12 193 4.8 11.3 0.18 0.18 0.18 87 1013.4
20260503211203 12 182 4.8 11.3 0.18 0.18 0.18 86 1013.3
20260503211004 12 151 6.4 11.3 0.18 0.18 0.18 87 1013.4
20260503210804 12 139 6.4 11.3 0.18 0.18 0.18 86 1013.3
20260503210625 11 145 4.8 8.0 0.18 0.18 0.18 85 1013.6
20260503210428 11 186 3.2 6.4 0.18 0.18 0.18 84 1013.9
20260503210225 11 251 3.2 6.4 0.18 0.18 0.18 84 1014.0
20260503210003 11 244 3.2 4.8 0.18 0.18 0.18 82 1014.1
20260503205804 11 232 3.2 6.4 0.18 0.18 0.18 81 1014.1
20260503205603 12 217 3.2 8.0 0.18 0.18 0.18 81 1014.1
20260503205403 12 206 1.6 8.0 0.18 0.18 0.18 79 1014.1
20260503205204 12 206 3.2 19.3 0.18 0.18 0.18 78 1014.2
20260503205004 12 207 4.8 19.3 0.18 0.18 0.18 77 1014.1
20260503204803 12 224 3.2 19.3 0.18 0.18 0.18 75 1014.1
20260503204603 12 286 1.6 19.3 0.15 0.15 0.15 72 1014.2
20260503204404 13 32 3.2 19.3 0.15 0.15 0.15 71 1014.2
20260503204203 13 4 3.2 24.1 0.15 0.15 0.15 69 1014.0
20260503204004 13 333 3.2 30.6 0.13 0.13 0.13 68 1014.1
20260503203804 13 328 3.2 30.6 0.10 0.10 0.10 67 1014.3
20260503203604 14 277 6.4 30.6 0.10 0.10 0.10 65 1014.4
20260503203404 15 293 12.9 30.6 0.08 0.08 0.08 62 1014.5
20260503203207 15 331 19.3 30.6 0.05 0.05 0.05 61 1014.6
20260503203004 15 328 11.3 22.5 0.03 0.03 0.03 61 1014.5
20260503202804 15 293 6.4 11.3 0.00 0.00 0.00 61 1014.2
20260503202604 16 286 3.2 14.5 0.00 0.00 0.00 57 1014.0
20260503202404 16 132 1.6 17.7 0.00 0.00 0.00 55 1013.6
20260503202204 16 131 4.8 17.7 0.00 0.00 0.00 53 1013.4
20260503202004 16 112 6.4 17.7 0.00 0.00 0.00 52 1013.4
20260503201803 16 112 9.7 17.7 0.00 0.00 0.00 51 1013.3
20260503201603 16 114 11.3 17.7 0.00 0.00 0.00 51 1013.3
20260503201403 16 121 11.3 17.7 0.00 0.00 0.00 51 1013.4
20260503201203 17 107 9.7 20.9 0.00 0.00 0.00 49 1013.3
20260503201004 17 122 11.3 25.7 0.00 0.00 0.00 49 1013.3
20260503200804 17 137 9.7 25.7 0.00 0.00 0.00 48 1013.3
20260503200603 17 147 9.7 25.7 0.00 0.00 0.00 47 1013.4
20260503200403 18 123 12.9 25.7 0.00 0.00 0.00 46 1013.4
20260503200204 18 125 14.5 25.7 0.00 0.00 0.00 46 1013.4
20260503200004 18 122 14.5 24.1 0.00 0.00 0.00 47 1013.4
20260503195804 18 137 12.9 22.5 0.00 0.00 0.00 51 1013.4
20260503195604 18 155 11.3 19.3 0.00 0.00 0.00 48 1013.6
20260503195403 17 145 11.3 17.7 0.00 0.00 0.00 53 1013.6
20260503195203 17 138 11.3 17.7 0.00 0.00 0.00 55 1013.6
20260503195004 16 138 11.3 17.7 0.00 0.00 0.00 56 1013.7
20260503194803 16 171 6.4 14.5 0.00 0.00 0.00 54 1013.7
20260503194603 16 162 6.4 14.5 0.00 0.00 0.00 53 1013.8
20260503194407 16 150 6.4 14.5 0.00 0.00 0.00 55 1013.8
20260503194203 16 171 6.4 14.5 0.00 0.00 0.00 53 1013.8
20260503194004 16 157 6.4 14.5 0.00 0.00 0.00 53 1013.8
20260503193804 16 169 4.8 14.5 0.00 0.00 0.00 53 1013.8
20260503193603 16 148 6.4 14.5 0.00 0.00 0.00 53 1013.8
20260503193404 16 147 3.2 11.3 0.00 0.00 0.00 53 1013.8
20260503193204 16 146 6.4 11.3 0.00 0.00 0.00 53 1013.9
20260503193025 16 141 6.4 8.0 0.00 0.00 0.00 54 1013.9
20260503192824 16 187 3.2 8.0 0.00 0.00 0.00 54 1014.0
20260503192625 16 181 4.8 9.7 0.00 0.00 0.00 53 1014.0
20260503192403 16 122 4.8 9.7 0.00 0.00 0.00 54 1014.0
20260503192204 16 108 1.6 9.7 0.00 0.00 0.00 54 1014.2
20260503192003 16 104 4.8 9.7 0.00 0.00 0.00 54 1014.2
20260503191803 16 101 4.8 9.7 0.00 0.00 0.00 59 1014.3
20260503191603 16 101 3.2 16.1 0.00 0.00 0.00 56 1014.2
20260503191403 16 54 3.2 16.1 0.00 0.00 0.00 57 1014.2
20260503191225 16 62 4.8 16.1 0.00 0.00 0.00 55 1014.2
20260503191025 16 57 8.0 16.1 0.00 0.00 0.00 54 1014.3
20260503190824 16 52 9.7 16.1 0.00 0.00 0.00 54 1014.3
20260503190604 16 53 8.0 16.1 0.00 0.00 0.00 54 1014.3
20260503190404 17 50 8.0 17.7 0.00 0.00 0.00 52 1014.4
20260503190204 17 54 8.0 17.7 0.00 0.00 0.00 50 1014.4
20260503190004 17 58 8.0 17.7 0.00 0.00 0.00 50 1014.4
20260503185803 17 73 8.0 17.7 0.00 0.00 0.00 52 1014.3
20260503185603 17 53 9.7 17.7 0.00 0.00 0.00 54 1014.4
20260503185403 17 84 8.0 16.1 0.00 0.00 0.00 56 1014.4
20260503185204 16 56 8.0 16.1 0.00 0.00 0.00 52 1014.4
20260503185004 16 75 8.0 16.1 0.00 0.00 0.00 55 1014.4
20260503184824 16 68 11.3 16.1 0.00 0.00 0.00 55 1014.3
20260503184625 16 77 12.9 16.1 0.00 0.00 0.00 58 1014.3
20260503184425 16 71 11.3 16.1 0.00 0.00 0.00 56 1014.4
20260503184204 16 63 8.0 16.1 0.00 0.00 0.00 54 1014.5
20260503184004 16 35 6.4 16.1 0.00 0.00 0.00 52 1014.6
20260503183804 16 41 8.0 20.9 0.00 0.00 0.00 56 1014.7
20260503183604 16 18 8.0 20.9 0.00 0.00 0.00 54 1014.8
20260503183404 17 360 6.4 20.9 0.00 0.00 0.00 55 1014.9
20260503183203 16 13 9.7 20.9 0.00 0.00 0.00 54 1015.0
20260503183004 16 353 11.3 20.9 0.00 0.00 0.00 56 1015.0
20260503182803 16 338 11.3 19.3 0.00 0.00 0.00 55 1015.0
20260503182603 16 4 6.4 17.7 0.00 0.00 0.00 53 1015.1
20260503182403 16 344 8.0 17.7 0.00 0.00 0.00 53 1015.1
20260503182203 16 309 8.0 17.7 0.00 0.00 0.00 50 1015.1
20260503182005 16 4 9.7 16.1 0.00 0.00 0.00 53 1015.1
20260503181803 17 39 6.4 16.1 0.00 0.00 0.00 51 1015.0
20260503181604 17 96 8.0 16.1 0.00 0.00 0.00 50 1015.0
20260503181404 17 207 6.4 16.1 0.00 0.00 0.00 52 1015.0
20260503181203 17 287 6.4 16.1 0.00 0.00 0.00 50 1015.1
20260503181004 17 313 6.4 16.1 0.00 0.00 0.00 47 1015.1
20260503180804 17 352 8.0 19.3 0.00 0.00 0.00 46 1015.0
20260503180603 17 317 3.2 19.3 0.00 0.00 0.00 43 1015.0
20260503180404 17 51 1.6 19.3 0.00 0.00 0.00 44 1015.0
20260503180203 17 341 1.6 19.3 0.00 0.00 0.00 42 1015.1
20260503180004 18 14 4.8 19.3 0.00 0.00 0.00 42 1015.2
20260503175804 18 11 9.7 17.7 0.00 0.00 0.00 42 1015.2
20260503175604 18 354 8.0 20.9 0.00 0.00 0.00 42 1015.2
20260503175403 18 12 11.3 20.9 0.00 0.00 0.00 42 1015.2
20260503175204 18 23 9.7 20.9 0.00 0.00 0.00 43 1015.2
20260503175004 18 6 8.0 22.5 0.00 0.00 0.00 43 1015.2
20260503174804 18 340 12.9 22.5 0.00 0.00 0.00 42 1015.2
20260503174603 18 357 12.9 27.4 0.00 0.00 0.00 42 1015.1
20260503174404 18 19 12.9 27.4 0.00 0.00 0.00 44 1014.9
20260503174225 18 53 16.1 27.4 0.00 0.00 0.00 44 1015.1
20260503174024 18 60 11.3 27.4 0.00 0.00 0.00 43 1015.3
20260503173825 18 94 14.5 27.4 0.00 0.00 0.00 45 1015.1